Vertical_Velocity
1 1 -1 -2 0 -0 -0 -1 -0 -1 -2 1 -1 -4 4 1 -1 -1 -2 -0 -1 -0 0 -1 -1 -0 0 -1 -1 1 -1 3 2 -1 -2 -2 -2 -1 -0 -1 -2 -3 -4
2 -2 -1 -1 -1 -1 -1 0 1 -0 -1 -0 -0 -2 2 -0 -0 -0 -1 1 0 -1 -2 -1 -1 0 0 2 2 -0 -1 1 1 1 -0 0 -1 -1 1 0 -0 0 -2
4 -1 -0 1 -0 -1 0 -0 -1 -1 0 1 1 -1 -0 1 0 -0 -2 -0 0 1 -1 1 -0 1 -0 2 2 2 2 1 -0 0 0 1 0 -1 -1 -0 -1 -0 -0
2 -0 1 0 0 -0 1 1 -0 -1 -0 0 0 1 -3 2 -1 0 -0 -1 1 1 1 2 2 1 1 3 1 -3 -1 1 0 -2 -0 0 1 0 -1 -1 -0 -1 -1
-0 -2 0 -0 -0 -1 -1 -1 -0 -0 -0 0 -2 0 -1 1 1 0 1 0 1 1 -1 -1 -0 -1 -0 0 -1 2 1 1 1 -1 1 1 -1 -1 -1 -1 -2 -2 -1
1 -0 -2 -2 -3 -3 -2 -0 0 0 -0 -0 -1 -1 -0 -0 2 0 2 1 0 3 2 0 0 -1 -1 -1 -0 -1 -1 -1 1 -0 -2 -0 1 0 -1 -1 -1 -1 -1
1 2 -2 -3 -2 -1 -1 1 1 0 -1 -2 -2 0 -1 -1 1 1 0 -1 0 -1 -1 -3 -3 -1 -0 -0 1 -0 -1 -0 -1 -1 -1 -2 -1 0 1 -0 -1 -0 -0
1 0 -1 0 -0 -2 -1 -1 0 -1 -1 -2 -2 -0 -0 -1 0 0 0 -1 -0 1 0 -3 -2 -2 -2 -1 1 -1 0 0 -0 -0 -1 0 -0 -1 -1 -1 -1 -1 -2
-2 3 0 -1 2 -0 -2 0 0 0 -1 -1 -0 1 -0 -0 1 -2 -1 -1 -1 -0 1 -3 -2 0 -1 0 0 -1 -1 -1 -1 -0 -0 -0 -0 -1 -2 0 -0 -0 -1
2 2 0 0 0 0 1 -1 -0 0 -1 -0 -2 -1 -1 -1 -2 0 -1 1 1 -2 0 -2 -3 -1 1 1 1 -0 -1 -2 -2 -2 -0 -1 -3 -3 -2 -2 -1 -2 -1
-1 3 1 -2 1 1 -0 -1 1 -0 -1 -1 -0 -1 -1 -0 -1 -2 -1 -5 1 -4 -0 -0 -2 -3 -1 -1 -1 -3 -2 -1 -2 -3 -4 -5 -4 -1 -1 -1 -3 0 -3
1 -1 2 2 -1 1 0 0 -1 -1 -1 -0 -2 -2 -0 0 -0 -0 2 -1 1 -2 -6 -8 -5 -4 -1 -0 -2 -3 -1 -0 0 -1 -1 -2 -1 -0 -1 1 -0 1 -0
4 1 2 1 -0 2 0 -1 -0 -2 -1 -1 -1 -1 -1 -2 -3 -2 -0 -0 4 7 -0 -0 -7 -6 -4 -1 -2 -4 -0 2 -1 -1 -1 -1 -0 -3 -2 -2 -3 -4 -1
5 4 3 -0 -1 1 -1 -1 -0 -2 -3 -2 -1 -2 -2 -2 -2 -1 -0 -2 2 -1 7 2 -2 -3 -5 -6 -7 -7 -4 -6 -4 -1 0 -1 -3 -3 -2 -2 -1 -0 -1
4 2 0 1 1 1 -2 -0 1 -3 6 -2 -1 -2 -2 -2 -2 -1 -1 -1 -4 -2 9 14 -2 0 -4 -3 -4 -1 0 -2 -0 -1 -3 -3 -3 -4 -4 -2 -1 -6 -4
3 -1 -2 -1 2 0 0 -0 1 -11 -3 -2 -3 -3 -2 -1 -2 -2 -2 -2 -3 -7 -7 4 11 3 6 -1 -1 -2 -4 -3 -1 -2 -2 -0 -3 -6 -1 -2 -4 -3 -3
4 1 -1 1 -1 0 1 2 -2 10 -3 -2 -1 -1 -2 -0 -2 -2 -0 -2 -2 -7 -9 2 -2 -1 4 1 3 -2 -4 -1 1 -6 -6 -7 -8 -7 -2 -6 -2 0 -2
0 2 -1 1 -1 1 5 -12 1 -1 -2 -1 -0 1 -0 1 -1 -1 -2 -3 -2 -5 -9 -4 3 2 -0 -4 -4 2 1 -3 -6 -2 -4 -6 -11 -1 -11 -4 -4 -4 -3
-0 0 2 0 0 -1 7 3 -0 -0 -1 -0 1 -2 3 1 -0 -2 -1 -1 -1 -1 -6 -6 -1 -1 -0 -7 -3 -5 1 2 -0 -5 -6 -5 -5 0 -3 -4 -5 -0 1
-0 0 -1 1 -4 20 3 5 1 1 1 -0 -1 2 2 -1 -1 -2 -1 -1 -0 1 -2 -3 -2 -1 -4 1 -6 -3 12 -16 0 -7 -4 0 -3 -2 -0 -3 -5 -3 -7
-6 1 -1 5 -6 -1 3 -5 -1 0 -1 -1 1 0 -2 -2 -2 -2 -1 0 2 2 1 -1 -0 -1 -2 1 -8 1 -6 -5 8 -4 -2 2 -5 -4 -4 -7 -6 -7 -4
1 -1 -2 -1 -14 3 15 4 -1 -2 5 0 -4 -3 -2 -2 -2 -1 -2 -1 2 -1 -1 -5 0 -4 2 -6 1 -7 -4 -3 8 -4 -4 9 -12 6 -2 2 -0 -8 -5
-0 -3 36 18 -4 5 5 4 -3 0 -3 -2 0 0 -2 -1 -0 0 0 3 2 -1 -7 -6 -6 -3 3 -4 -5 -2 -1 -3 2 1 -10 3 -0 6 -5 4 -6 -5 -5
-4 23 16 -1 33 -2 5 5 -0 -1 -0 -0 -1 -1 3 2 -1 0 2 -1 2 2 -1 -0 -5 -6 -7 -8 -6 -3 -2 2 5 3 -19 -3 -4 4 2 7 -1 -3 -6
28 8 25 8 4 4 -1 1 0 -1 -0 -0 -1 3 -0 1 4 -4 2 4 1 -2 0 -5 -5 -6 -6 -5 -5 -3 -3 -3 4 5 -8 -10 1 -3 -0 15 4 -3 -9
12 6 8 5 1 0 -2 -1 -0 -1 -2 3 -0 -0 -1 -1 1 1 -1 -1 2 2 1 0 -9 -8 -3 -3 -5 -7 -3 -0 -7 7 -9 -2 6 -9 1 13 19 9 -6
Height
5822 5822 5823 5823 5822 5821 5820 5819 5818 5817 5816 5815 5813 5812 5810 5808 5806 5804 5802 5801 5800 5800 5799 5798 5797 5795 5794 5793 5793 5793 5791 5791 5789 5789 5788 5786 5786 5785 5785 5785 5784 5784 5784
5817 5816 5817 5817 5816 5815 5814 5813 5812 5811 5810 5808 5807 5805 5803 5801 5799 5797 5795 5794 5794 5793 5792 5791 5790 5788 5787 5787 5786 5785 5784 5783 5782 5781 5780 5779 5778 5777 5776 5776 5776 5775 5775
5811 5810 5810 5810 5810 5809 5808 5807 5806 5805 5803 5802 5800 5798 5796 5794 5792 5790 5788 5788 5786 5785 5784 5783 5782 5781 5780 5779 5779 5778 5776 5775 5774 5772 5771 5770 5769 5768 5767 5766 5766 5766 5766
5803 5803 5804 5804 5803 5803 5802 5800 5799 5798 5797 5796 5794 5791 5789 5787 5785 5783 5782 5780 5778 5777 5776 5775 5774 5773 5772 5772 5771 5770 5768 5766 5764 5762 5761 5760 5759 5758 5757 5756 5756 5755 5754
5796 5797 5797 5796 5796 5795 5794 5793 5792 5791 5790 5788 5786 5784 5781 5779 5777 5775 5774 5772 5771 5769 5768 5767 5766 5764 5763 5762 5760 5759 5758 5756 5755 5752 5750 5748 5747 5746 5745 5744 5744 5743 5742
5789 5790 5789 5790 5790 5788 5787 5786 5785 5784 5782 5780 5778 5775 5773 5771 5769 5768 5766 5764 5763 5761 5759 5758 5756 5754 5753 5751 5749 5747 5745 5745 5743 5741 5738 5737 5736 5734 5732 5731 5730 5728 5727
5782 5782 5782 5782 5782 5781 5780 5778 5777 5776 5774 5772 5770 5767 5765 5763 5761 5759 5757 5755 5753 5751 5749 5747 5745 5743 5741 5740 5737 5735 5733 5731 5730 5728 5725 5724 5722 5721 5719 5717 5716 5714 5713
5773 5773 5774 5774 5774 5773 5771 5770 5769 5768 5766 5764 5762 5760 5757 5756 5753 5751 5748 5746 5744 5742 5739 5736 5734 5732 5730 5727 5725 5722 5720 5717 5715 5714 5711 5709 5707 5705 5703 5701 5700 5698 5696
5764 5766 5766 5766 5766 5765 5763 5762 5761 5760 5758 5756 5754 5752 5749 5747 5744 5741 5739 5736 5733 5731 5727 5724 5722 5719 5717 5714 5712 5709 5706 5704 5701 5699 5696 5694 5691 5689 5687 5684 5682 5680 5678
5756 5757 5757 5758 5758 5757 5756 5755 5753 5752 5751 5748 5746 5743 5740 5738 5735 5732 5729 5726 5722 5719 5715 5712 5710 5707 5705 5701 5698 5695 5692 5689 5686 5683 5680 5677 5674 5671 5667 5664 5662 5660 5658
5748 5749 5749 5750 5750 5749 5748 5747 5746 5744 5742 5740 5737 5734 5732 5729 5726 5722 5719 5716 5712 5708 5704 5701 5698 5695 5691 5687 5684 5680 5677 5674 5670 5666 5662 5659 5655 5651 5648 5644 5640 5638 5635
5738 5739 5740 5739 5740 5740 5740 5739 5737 5734 5733 5731 5729 5726 5723 5720 5716 5713 5710 5707 5703 5698 5691 5685 5682 5679 5676 5672 5668 5665 5661 5657 5653 5649 5645 5640 5636 5631 5627 5622 5618 5614 5610
5727 5729 5730 5729 5730 5730 5730 5729 5727 5726 5724 5722 5720 5717 5713 5709 5706 5703 5699 5696 5693 5689 5683 5675 5670 5665 5661 5657 5652 5648 5644 5640 5635 5632 5627 5622 5617 5613 5608 5603 5599 5594 5590
5716 5718 5720 5719 5720 5721 5720 5720 5719 5717 5714 5713 5710 5707 5703 5699 5696 5692 5688 5684 5680 5676 5671 5664 5658 5653 5648 5643 5637 5632 5627 5622 5617 5612 5606 5600 5596 5591 5586 5581 5575 5569 5564
5707 5708 5710 5709 5710 5710 5711 5710 5709 5707 5702 5703 5700 5696 5692 5688 5684 5679 5675 5670 5665 5662 5659 5652 5645 5639 5634 5628 5622 5617 5610 5604 5598 5591 5584 5578 5572 5567 5560 5554 5547 5539 5531
5697 5698 5699 5700 5700 5701 5701 5700 5700 5699 5696 5693 5690 5686 5681 5676 5671 5666 5661 5656 5651 5647 5643 5638 5631 5624 5618 5612 5606 5599 5592 5586 5578 5570 5562 5555 5547 5539 5532 5524 5514 5505 5496
5686 5688 5690 5691 5692 5692 5691 5690 5689 5685 5686 5682 5679 5674 5669 5664 5659 5653 5648 5642 5637 5633 5628 5622 5614 5607 5600 5594 5588 5580 5572 5565 5557 5545 5536 5526 5516 5506 5497 5487 5477 5468 5461
5676 5680 5681 5682 5683 5683 5680 5679 5679 5678 5675 5671 5667 5663 5658 5653 5646 5641 5636 5630 5624 5617 5612 5606 5598 5591 5583 5575 5568 5560 5553 5543 5532 5520 5506 5494 5482 5471 5461 5453 5446 5443 5439
5667 5670 5672 5674 5674 5672 5672 5671 5669 5668 5664 5660 5656 5651 5646 5640 5634 5629 5623 5616 5609 5601 5594 5588 5582 5573 5565 5555 5550 5541 5530 5517 5503 5487 5474 5463 5451 5442 5435 5429 5427 5424 5420
5658 5661 5662 5664 5664 5657 5658 5660 5659 5656 5652 5648 5644 5638 5633 5627 5621 5615 5608 5601 5594 5586 5579 5572 5565 5557 5547 5538 5528 5518 5508 5489 5478 5459 5445 5439 5428 5421 5413 5408 5405 5401 5399
5649 5651 5653 5655 5654 5654 5653 5652 5647 5644 5641 5636 5631 5626 5620 5615 5608 5601 5594 5586 5579 5571 5563 5555 5547 5538 5528 5517 5505 5493 5482 5469 5452 5435 5428 5422 5411 5406 5396 5390 5384 5380 5377
5641 5643 5644 5647 5647 5645 5642 5640 5636 5633 5629 5624 5618 5613 5607 5600 5593 5585 5577 5570 5562 5553 5544 5537 5529 5518 5507 5495 5483 5471 5457 5443 5438 5417 5412 5408 5396 5391 5382 5374 5367 5361 5357
5634 5637 5629 5634 5637 5634 5632 5629 5625 5621 5616 5611 5605 5599 5592 5585 5577 5570 5562 5555 5546 5536 5526 5517 5508 5496 5488 5472 5461 5447 5434 5427 5418 5405 5396 5397 5381 5377 5365 5359 5350 5343 5339
5627 5629 5630 5628 5627 5624 5623 5619 5613 5609 5604 5598 5592 5585 5578 5570 5562 5556 5548 5540 5532 5521 5511 5498 5487 5476 5463 5450 5438 5431 5422 5415 5404 5391 5372 5378 5366 5360 5352 5345 5333 5327 5322
5619 5621 5622 5618 5616 5613 5611 5607 5603 5598 5591 5584 5577 5570 5563 5556 5548 5540 5533 5525 5515 5501 5490 5477 5466 5454 5442 5430 5423 5418 5407 5398 5390 5379 5356 5354 5349 5342 5336 5332 5321 5311 5306
5612 5613 5613 5612 5608 5606 5604 5598 5592 5584 5577 5570 5562 5555 5548 5541 5533 5524 5516 5506 5496 5484 5471 5457 5444 5433 5424 5416 5409 5400 5391 5382 5370 5364 5344 5339 5332 5321 5322 5318 5312 5301 5294